Torna al catalogo

HULIANWANG DIGUI-122

AttivoComunicazioniLEO
NORAD 67062·PAYLOAD·🇨🇳 China

Lanciato Dec 11, 2025 da Wenchang Space Launch Site

Loading…

Prossimi Passaggi (prossime 24 ore)

TLE

AggiornatoSource: Space-Track

Epoca: Sep 14, 2026, 12:28 UTC

1 67062U 25295D   26257.51983430 -.00000116  00000-0  17304-4 0  9997
2 67062  50.0036  65.1635 0000820  60.6840 299.4114 13.29325625 37386

Traccia HULIANWANG DIGUI-122 in tempo reale con AllMySat

Download on the App Store